Regional Weather Roundup
Issued by NWS

Home | Current Version | Previous Version | Text Only | Print | Product List | Glossary Off
Versions: 1 2 3 4 5 6 7 8 9 10 11 12 13 14 15 16 17 18 19 20 21 22 23 24 25 26 27 28 29 30 31 32 33 34 35 36 37 38 39 40 41 42 43 44 45 46 47 48 49 50

000
ASUS45 KSLC 021610
RWRUT

UTAH REGIONAL WEATHER ROUNDUP
NATIONAL WEATHER SERVICE SALT LAKE CITY UT
1000 AM MDT SAT MAY 02 2015

UTZ001>011-023>025-021700-

NORTHERN UTAH

CITY           SKY/WX    TMP DP  RH WIND       PRES   REMARKS
BRIGHAM CITY   MOSUNNY   64  43  47 CALM      29.94F
HILL AFB       PTSUNNY   65  40  39 E7        29.96S
LOGAN          PTSUNNY   53  41  63 CALM      29.96S
OGDEN          MOSUNNY   69  40  34 S8        29.94F
PROVO AIRPORT  MOSUNNY   66  46  48 SW8       29.99R
SALT LAKE CITY PTSUNNY   69  40  34 S7        29.94S
VERNAL         MOSUNNY   61  37  41 CALM      30.05S
WENDOVER       MOSUNNY   66  34  30 E7        29.94S
HEBER CITY     MOSUNNY   61  36  39 CALM      30.02F
WEST JORDAN    SUNNY     66  45  45 S15       29.96S

$$

UTZ012>022-026-027-021700-

SOUTHERN/CENTRAL UTAH

CITY           SKY/WX    TMP DP  RH WIND       PRES   REMARKS
BLANDING       MOSUNNY   64  30  27 S6        30.16S
BRYCE CANYON   MOSUNNY   63  24  22 W9        30.18S
CEDAR CITY     MOSUNNY   66  38  35 N3        30.05S
DELTA          MOSUNNY   68  28  22 S10       30.00S
HANKSVILLE     MOSUNNY   66  32  28 CALM      30.03S
MILFORD        MOSUNNY   69  26  20 S13       30.02S
MOAB/CYNLANDS  SUNNY     70  36  28 SE8       29.99S
PRICE          SUNNY     67  33  28 VRB3      30.05F
ST GEORGE      MOSUNNY   70  28  21 W3        29.96F
KANAB          SUNNY     66  30  26 CALM      30.08S

$$

REGIONAL REPORTS     COLORADO/ARIZONA

CITY           SKY/WX    TMP DP  RH WIND       PRES   REMARKS
CRAIG, CO      MOSUNNY   60  37  42 E13       30.09F
GRAND JUNCTION SUNNY     65  36  34 VRB6      30.02S
RIFLE          SUNNY     60  36  40 CALM      30.06F
MONTROSE       MOSUNNY   65  36  34 NW6       30.08F
CORTEZ         SUNNY     66  35  31 W5        30.11R
PAGE, AZ       NOT AVBL
GRAND CANYON   MOSUNNY   67  21  17 CALM      30.15S
KINGMAN        MOSUNNY   78  29  16 CALM      29.96R
FLAGSTAFF      PTSUNNY   65  23  20 VRB5      30.17S

$$

REGIONAL REPORTS    NEVADA/IDAHO/WYOMING

CITY           SKY/WX    TMP DP  RH WIND       PRES   REMARKS
LAS VEGAS, NV  MOSUNNY   81  28  14 S7        29.84S
ELY            SUNNY     65  23  20 S13       30.06S
ELKO           MOSUNNY   60  31  33 CALM      29.99S
POCATELLO, ID  SUNNY     66  32  28 NE5       29.92F
BURLEY         SUNNY     62  36  37 CALM      29.89F
EVANSTON, WY   PTSUNNY   61  35  37 SW14      30.08S
ROCK SPRINGS   SUNNY     60  31  33 W7        30.06F
KEMMERER       PTSUNNY   59  32  36 SW6       30.09S

$$



USA.gov is the U.S. government's official web portal to all federal, state and local government web resources and services.